Location: Lac de la Montagne noire
(46.1952°N, 74.2701°W)
Time: 06:18:23
(UTC-04:00)

Tiangong 2 - Visible Passes

Search period start: 25 June 2018 00:00
Search period end: 05 July 2018 00:00
Orbit: 385 x 396 km, 42.8° (Epoch: 25 June)

Date Brightness Start Highest point End Pass type
(mag) Time Alt. Az. Time Alt. Az. Time Alt. Az.
29 Jun 2.7 04:15:58 10° SSW 04:18:32 23° SSE 04:21:09 10° ESE visible
30 Jun 3.0 03:20:50 16° SSE 03:21:09 16° SSE 03:23:14 10° ESE visible
01 Jul 2.1 03:57:58 15° SW 04:00:04 31° SSE 04:02:58 10° E visible
02 Jul 2.5 03:02:48 24° SSE 03:02:48 24° SSE 03:05:16 10° ESE visible
03 Jul 1.6 03:39:57 21° SW 03:41:37 40° S 03:44:39 10° E visible
04 Jul 2.2 02:44:47 29° SE 02:44:47 29° SE 02:47:01 10° E visible
04 Jul 1.5 04:17:39 10° WSW 04:20:42 44° S 04:23:46 10° ESE visible
